New Orleans Lakefront, LA

5:25 AM CST on February 18, 2018 (GMT -0600)
Lakefront

Weather History for KNEW - July, 2013

Change the Weather History Date:

Monday, July 22, 2013

  Actual Average Record
Temperature  
Mean Temperature 85 °F 83 °F  
Max Temperature 91 °F 91 °F 99 °F (1981)
Min Temperature 78 °F 75 °F 68 °F (1972)
Degree Days  
Heating Degree Days 0 0  
Month to date heating degree days 0 0  
Since 1 June heating degree days 0 0  
Since 1 July heating degree days 0 0  
Cooling Degree Days 20 18  
Month to date cooling degree days 372 396  
Year to date cooling degree days 1406 1510  
Since 1 June cooling degree days 913 891  
Growing Degree Days 34 (Base 50)    
Moisture  
Dew Point 76 °F    
Average Humidity 78    
Maximum Humidity 91    
Minimum Humidity 64    
Precipitation  
Precipitation T in 0.18 in 1.92 in (1965)
Month to date precipitation 3.90 4.35  
Year to date precipitation 43.02 36.65  
Snow  
Snow 0.00 in - - ()
Month to date snowfall 0.0  
Since 1 June snowfall 0.0  
Since 1 July snowfall 0.0  
Snow Depth 0.00 in    
Sea Level Pressure  
Sea Level Pressure 30.03 in    
Wind  
Wind Speed 9 mph (SW)    
Max Wind Speed 18 mph    
Max Gust Speed 23 mph    
Visibility 10 miles    
Events Rain    
T = Trace of Precipitation, MM = Missing Value Source: NWS Daily Summary

Daily Weather History Graph

Daily Weather History Graph

Search for Another Location

Airport or City:

Trip Planner

Search our weather history database for the weather conditions in past years. The results will help you decide how hot, cold, wet, or windy it might be!

Date:

Astronomy

Jul. 22, 2013 Rise Set
Actual Time 6:13 AM CDT 7:59 PM CDT
Civil Twilight 5:46 AM CDT 8:26 PM CDT
Nautical Twilight 5:14 AM CDT 8:57 PM CDT
Astronomical Twilight 4:41 AM CDT 9:31 PM CDT
Moon 7:52 PM CDT (7/22) 6:05 AM CDT (7/22)
Length of Visible Light 14h 39m
Length of Day
13h 46m
Full, 100% of the Moon is Illuminated
Jul 22
Full
Jul 22
Full
Jul 29
Last Quarter
Aug 6
New
Aug 14
First Quarter

Hourly Weather History & Observations

Time (CDT) Temp. Heat Index Dew Point Humidity Pressure Visibility Wind Dir Wind Speed Gust Speed Precip Events Conditions
12:53 AM 79.0 °F - 75.0 °F 88% 30.03 in 10.0 mi South 8.1 mph - N/A   Clear
1:53 AM 79.0 °F - 75.0 °F 88% 30.01 in 10.0 mi South 6.9 mph - N/A   Partly Cloudy
2:53 AM 80.1 °F 85.4 °F 75.9 °F 87% 30.01 in 10.0 mi SSW 9.2 mph - N/A   Clear
3:53 AM 80.1 °F 85.4 °F 75.9 °F 87% 30.01 in 10.0 mi South 9.2 mph - N/A   Clear
4:53 AM 79.0 °F - 75.9 °F 90% 30.01 in 10.0 mi South 6.9 mph - N/A   Scattered Clouds
5:53 AM 79.0 °F - 75.0 °F 88% 30.02 in 10.0 mi South 3.5 mph - N/A   Clear
6:53 AM 81.0 °F 87.9 °F 77.0 °F 88% 30.04 in 10.0 mi SSW 4.6 mph - N/A   Scattered Clouds
7:16 AM 80.6 °F 87.1 °F 77.0 °F 89% 30.06 in 10.0 mi SSW 4.6 mph - N/A   Mostly Cloudy
7:25 AM 80.6 °F 87.1 °F 77.0 °F 89% 30.06 in 10.0 mi South 4.6 mph - N/A   Mostly Cloudy
7:53 AM 82.0 °F 91.0 °F 78.1 °F 88% 30.06 in 5.0 mi SSW 8.1 mph - 0.02 in   Mostly Cloudy
8:53 AM 82.9 °F 90.8 °F 75.9 °F 79% 30.06 in 10.0 mi WSW 15.0 mph - 0.01 in   Scattered Clouds
9:53 AM 84.0 °F 90.2 °F 73.0 °F 69% 30.05 in 10.0 mi SW 10.4 mph - 0.00 in   Scattered Clouds
10:53 AM 84.9 °F 94.1 °F 75.9 °F 74% 30.06 in 10.0 mi SW 13.8 mph - N/A   Clear
11:53 AM 89.1 °F 100.2 °F 75.9 °F 65% 30.04 in 10.0 mi WSW 15.0 mph - N/A   Scattered Clouds
12:53 PM 90.0 °F 102.5 °F 77.0 °F 65% 30.04 in 10.0 mi West 13.8 mph - N/A   Scattered Clouds
1:53 PM 90.0 °F 102.5 °F 77.0 °F 65% 30.01 in 10.0 mi WSW 10.4 mph - N/A   Mostly Cloudy
2:53 PM 84.9 °F 93.3 °F 75.0 °F 72% 30.01 in 10.0 mi SW 8.1 mph - 0.02 in Rain Light Rain
3:53 PM 89.1 °F 100.2 °F 75.9 °F 65% 29.99 in 10.0 mi SW 16.1 mph - 0.00 in   Mostly Cloudy
4:53 PM 88.0 °F 98.5 °F 75.9 °F 67% 30.00 in 10.0 mi WSW 15.0 mph - N/A   Scattered Clouds
5:53 PM 87.1 °F 98.8 °F 77.0 °F 72% 30.01 in 10.0 mi Variable 5.8 mph - 0.02 in   Overcast
6:53 PM 86.0 °F 96.0 °F 75.9 °F 72% 30.00 in 10.0 mi Calm Calm - N/A   Mostly Cloudy
7:53 PM 86.0 °F 98.3 °F 78.1 °F 77% 30.00 in 10.0 mi SSW 13.8 mph - N/A   Scattered Clouds
8:53 PM 84.9 °F 95.3 °F 77.0 °F 77% 30.01 in 10.0 mi SW 12.7 mph - N/A   Clear
9:53 PM 84.0 °F 93.7 °F 77.0 °F 79% 30.03 in 10.0 mi SW 10.4 mph - N/A   Clear
10:53 PM 82.9 °F 91.8 °F 77.0 °F 82% 30.03 in 10.0 mi SW 9.2 mph - N/A   Clear
11:53 PM 82.9 °F 91.8 °F 77.0 °F 82% 30.03 in 10.0 mi SW 9.2 mph - N/A   Clear